Flag for U.S.A. Weather past 2 weeks in Lexington, North Carolina, U.S.A.

Now
42 °F

Rain. Mostly cloudy.


Feels Like: 37 °F
Forecast: 30 / 62 °F
Wind: 8 mph from Northeast

Location: Davidson County Airport

Current Time: Mar 5, 2015 at 2:42:01 PM

Latest Report: Mar 5, 2015 at 2:15 PM


Visibility: 5 mi

Pressure: 30.02 "Hg

Humidity: 95%

Dew point: 40 °F

Location of LexingtonLocation

Historic Weather in Lexington — Graph

°F

Lexington temperature yesterday

Maximum temperature yesterday: 73 °F (at 1:55 PM)
Minimum temperature yesterday: 39 °F (at 12:15 AM)
Average temperature yesterday: 56 °F

Past Weeks' High & Low Weather Summary

 TemperatureHumidityPressure
High73 °F (Mar 4, 1:55 PM)100% (Mar 3, 9:15 PM)30.74 "Hg (Mar 3, 9:15 PM)
Low3 °F (Feb 20, 6:55 AM)25% (Feb 19, 3:55 PM)29.70 "Hg (Feb 26, 3:55 AM)
Average35 °F70%30.20 "Hg
* Reported Feb 18 12:15 PM — Mar 5 12:55 PM, Lexington, Weather by CustomWeather, © 2015

Note: Actual official high and low records may vary slightly from our data, if they occured in-between our weather recording intervals... More about our weather records

Advertising

Lexington weather history for previous 24 hours

 ConditionsComfort  
Time TempWeatherWind HumidityBarometerVisibility
12:55 PM
Thu, Mar 5
44 °FRain. Mostly cloudy.7 mph93%30.01 "Hg7 mi
12:35 PM44 °FRain. Partly sunny.12 mph94%30.00 "Hg4 mi
12:15 PM45 °FHeavy rain. Partly sunny.7 mph95%30.00 "Hg5 mi
10:55 AM46 °FHeavy rain. Mostly cloudy.6 mph95%29.92 "Hg4 mi
10:20 AM47 °FLight rain. Mostly cloudy.7 mph94%29.93 "Hg7 mi
9:56 AM48 °FLight rain. Low clouds.12 mph94%29.91 "Hg10 mi
9:35 AM52 °FRain. Partly sunny.5 mph94%29.90 "Hg5 mi
9:15 AM52 °FRain. Partly sunny.6 mph100%29.89 "Hg5 mi
8:55 AM54 °FHeavy rain. Broken clouds.No wind94%29.88 "Hg5 mi
8:35 AM55 °FHeavy rain. Mostly cloudy.8 mph94%29.88 "Hg2 mi
8:15 AM63 °FLight rain. Overcast.No wind94%29.86 "Hg4 mi
7:55 AM63 °FLight rain. Mostly cloudy.5 mph94%29.85 "Hg4 mi
7:15 AM63 °FOvercast.6 mph88%29.85 "Hg10 mi
6:55 AM63 °FOvercast.7 mph88%29.86 "Hg7 mi
6:35 AM63 °FOvercast.5 mph88%29.86 "Hg10 mi
6:15 AM63 °FMostly cloudy.6 mph88%29.86 "Hg10 mi
5:55 AM63 °FMostly cloudy.6 mph88%29.87 "Hg10 mi
5:35 AM63 °FMostly cloudy.5 mph88%29.86 "Hg10 mi
5:15 AM63 °FMostly cloudy.5 mph88%29.85 "Hg10 mi
4:55 AM63 °FMostly cloudy.5 mph88%29.85 "Hg10 mi
4:15 AM63 °FOvercast.6 mph94%29.84 "Hg10 mi
3:55 AM63 °FOvercast.6 mph94%29.85 "Hg10 mi
3:35 AM64 °FOvercast.9 mph88%29.85 "Hg10 mi
3:15 AM64 °FDrizzle. Mostly cloudy.8 mph88%29.85 "Hg7 mi
2:55 AM66 °FOvercast.14 mph78%29.86 "Hg10 mi
2:35 AM66 °FMostly cloudy.14 mph78%29.86 "Hg10 mi
2:15 AM66 °FMostly cloudy.12 mph78%29.87 "Hg10 mi
1:55 AM66 °FMostly cloudy.7 mph73%29.86 "Hg10 mi
1:35 AM66 °FOvercast.7 mph73%29.86 "Hg10 mi
1:15 AM66 °FMostly cloudy.6 mph73%29.87 "Hg10 mi
12:55 AM66 °FOvercast.7 mph73%29.87 "Hg10 mi
12:35 AM66 °FOvercast.6 mph73%29.87 "Hg10 mi
12:16 AM64 °FMostly cloudy.5 mph78%29.87 "Hg10 mi
11:15 PM
Wed, Mar 4
64 °FPassing clouds.5 mph78%29.88 "Hg10 mi
10:35 PM64 °FClear.7 mph78%29.88 "Hg10 mi
10:16 PM64 °FClear.6 mph78%29.88 "Hg10 mi
8:55 PM64 °FClear.5 mph78%29.88 "Hg10 mi
8:15 PM66 °FPassing clouds.10 mph68%29.88 "Hg10 mi
7:55 PM66 °FClear.6 mph73%29.88 "Hg10 mi
7:16 PM66 °FClear.10 mph68%29.86 "Hg10 mi
6:55 PM66 °FClear.10 mph68%29.86 "Hg10 mi
6:35 PM66 °FClear.10 mph68%29.86 "Hg10 mi
6:15 PM66 °FScattered clouds.10 mph68%29.86 "Hg10 mi
5:35 PM70 °FPartly sunny.14 mph60%29.85 "Hg10 mi
5:16 PM70 °FScattered clouds.10 mph60%29.85 "Hg10 mi
4:15 PM72 °FScattered clouds.12 mph61%29.86 "Hg10 mi
3:55 PM72 °FScattered clouds.15 mph61%29.86 "Hg10 mi
3:35 PM72 °FScattered clouds.16 mph57%29.86 "Hg10 mi
3:15 PM72 °FScattered clouds.15 mph57%29.87 "Hg10 mi
2:35 PM72 °FScattered clouds.13 mph61%29.87 "Hg10 mi
2:15 PM73 °FSunny.15 mph57%29.87 "Hg10 mi
Weather by CustomWeather, © 2015

See weather overviewHow to use our weather pages